Wind_Speed
16 16 16 16 16 16 16 15 15 15 15 14 14 14 14 14 14 15 15 16 16 16 17 17 18 18 18 19 19 19 19 20 20 21 21 22 22 22
18 18 19 19 19 18 18 18 17 17 17 17 17 18 18 18 18 19 19 19 20 20 21 21 21 21 22 22 22 22 22 23 23 24 24 24 25 25
20 21 21 21 21 21 20 21 21 21 20 21 21 21 21 21 22 23 22 23 23 24 24 25 25 25 25 25 25 25 26 26 26 26 27 27 27 27
23 23 24 23 23 23 23 23 23 23 23 23 24 23 24 24 25 25 25 25 25 26 26 27 27 28 28 29 29 29 29 30 30 30 30 30 30 30
24 24 25 25 25 25 25 25 26 26 26 26 26 27 27 27 27 28 28 28 28 28 28 29 30 31 32 32 33 33 33 33 34 34 34 34 34 35
25 26 26 27 26 27 27 27 27 27 28 29 29 30 30 30 30 30 31 31 32 31 32 32 34 34 34 35 35 35 36 37 37 38 38 38 39 39
26 26 27 27 27 27 28 29 29 30 30 31 31 31 31 32 32 33 33 33 34 34 35 35 36 36 36 36 37 38 39 39 40 41 41 42 42 42
25 26 27 27 28 29 30 30 31 31 32 32 33 33 33 34 34 34 34 35 35 36 36 37 38 39 39 40 40 41 41 42 42 42 42 43 44 45
26 27 27 28 29 30 31 32 32 33 33 33 34 34 35 35 36 36 37 38 38 38 38 39 40 41 41 41 42 43 43 44 44 44 45 45 46 47
26 27 28 29 29 30 31 31 32 33 33 34 35 36 37 37 38 38 38 40 41 41 41 42 43 43 43 43 44 45 45 46 47 48 48 49 50 51
28 28 29 29 31 32 32 32 32 33 35 36 37 38 38 39 39 41 41 42 42 43 43 44 44 44 45 46 47 47 48 49 49 50 51 52 53 53
29 30 31 31 32 33 33 33 34 34 35 36 37 38 39 40 41 41 42 43 44 45 45 46 46 46 47 49 50 50 51 51 52 52 52 53 53 53
31 32 32 32 33 33 34 35 36 36 36 36 36 37 39 41 41 41 42 43 44 45 45 46 47 48 49 50 51 52 53 53 54 54 54 54 55 55
30 31 32 32 33 34 35 36 36 36 36 37 37 37 38 39 40 41 42 43 44 45 46 47 49 50 51 52 52 53 54 55 56 56 56 56 56 57
31 32 32 32 33 34 35 35 35 36 37 38 38 39 40 41 42 42 43 44 46 47 49 50 51 52 53 53 54 54 54 54 55 55 55 54 54 54
31 32 32 32 33 34 34 35 36 37 38 39 40 40 41 42 43 44 45 46 47 49 50 50 51 52 52 53 53 53 52 52 52 52 51 51 51 51
31 31 32 34 34 35 35 36 38 39 40 41 41 41 42 43 44 45 46 47 48 49 49 50 51 51 51 51 50 50 50 50 49 49 48 48 48 49
32 34 35 36 37 36 37 37 39 40 41 42 41 42 43 44 44 45 46 46 47 48 49 49 48 48 47 47 48 47 47 46 46 46 45 45 45 45
33 34 35 36 36 36 37 38 40 40 41 41 41 42 43 43 44 45 45 46 46 46 46 46 45 45 45 44 44 45 44 44 43 43 44 44 44 43
32 33 33 34 35 37 38 39 40 40 40 41 41 42 42 43 44 44 44 44 45 45 45 44 44 44 43 43 42 42 43 42 41 41 41 42 42 41
31 32 33 35 36 37 38 39 39 40 40 40 40 41 41 42 42 42 42 43 43 43 42 42 41 40 40 40 40 39 39 39 39 38 38 38 38 38
31 33 34 35 36 37 37 37 38 38 38 39 39 39 40 40 40 40 40 40 40 39 38 37 37 36 36 36 36 35 35 35 35 35 35 35 34 33
33 34 35 35 35 36 36 36 37 37 37 37 37 37 37 38 38 38 38 37 36 35 34 34 34 33 33 33 33 32 32 33 33 32 32 31 30 30
Wind_Direction
258 260 262 265 269 272 272 272 271 271 272 272 272 274 278 280 282 284 285 286 287 288 289 289 289 290 291 291 290 290 290 291 292 291 291 290 288 287
259 262 263 266 269 270 273 272 273 274 274 273 272 272 275 278 280 281 282 285 284 285 286 286 286 287 288 289 289 289 289 289 289 289 289 288 287 286
260 263 266 268 268 271 271 272 272 273 275 275 274 274 275 276 279 280 281 282 284 285 285 284 285 285 285 286 287 287 286 287 287 287 287 287 286 285
262 265 267 269 269 269 270 271 272 272 273 274 276 278 278 278 280 281 281 282 282 283 284 285 284 284 284 285 286 286 286 286 286 286 286 286 286 285
265 267 269 271 272 270 271 272 273 273 272 273 275 277 278 278 278 280 282 281 281 281 281 283 284 284 284 285 285 285 284 285 285 285 285 284 284 284
265 267 270 272 272 272 272 274 274 274 272 272 273 275 275 277 278 280 281 281 281 281 281 282 283 284 284 284 285 285 285 285 285 284 283 283 283 283
267 268 268 270 272 273 274 274 275 275 273 272 273 274 275 277 278 280 280 281 282 283 283 283 284 284 284 284 285 285 284 284 285 284 284 283 283 282
271 271 272 273 275 276 276 276 276 275 273 272 273 274 275 277 278 279 280 280 281 282 283 285 286 285 285 286 285 284 284 284 284 284 284 284 283 282
274 273 274 275 275 278 279 278 277 276 275 274 275 276 277 278 278 278 279 280 281 281 283 285 286 286 286 287 287 285 284 284 284 284 284 283 283 283
275 274 274 276 277 278 280 280 278 277 277 276 277 277 277 278 279 280 282 282 280 280 281 283 284 286 287 287 287 287 286 285 285 284 284 283 283 283
277 277 277 278 281 282 281 280 280 280 281 280 280 279 279 280 281 281 281 282 282 282 282 283 284 285 286 287 288 288 287 287 286 286 286 286 285 284
277 278 278 280 281 282 282 283 283 283 284 284 283 283 282 281 281 282 282 283 283 283 284 285 285 285 286 287 287 287 287 287 287 286 286 286 285 285
279 278 280 281 282 284 284 284 286 286 285 284 284 284 283 283 283 284 284 284 285 285 286 286 287 287 287 287 287 288 288 287 287 286 286 286 285 284
281 281 281 283 283 283 284 285 286 286 286 286 286 287 287 287 287 287 286 286 287 287 287 288 288 288 288 288 288 288 287 287 287 287 287 286 285 285
282 282 283 284 284 285 286 288 288 287 288 288 289 290 289 289 289 289 289 289 289 289 289 289 290 290 290 289 289 289 289 289 289 288 288 287 286 285
284 283 285 288 287 288 289 289 291 291 290 290 289 289 290 289 289 290 290 290 290 290 291 291 292 291 291 291 291 291 291 290 290 289 288 287 287 286
284 285 287 289 289 289 291 291 291 292 291 291 292 291 290 291 291 292 291 291 291 292 292 292 293 293 292 292 291 291 291 291 291 290 289 288 287 287
286 287 288 289 290 290 291 291 292 293 293 294 292 291 292 292 293 293 292 292 293 294 294 294 294 294 293 293 293 293 292 292 292 291 290 290 290 289
289 289 289 290 290 290 291 292 293 293 293 293 294 294 295 295 295 294 294 295 296 296 296 296 296 296 295 294 294 294 294 294 293 292 292 292 292 291
289 289 290 291 292 293 294 294 295 295 295 295 295 296 296 296 296 296 297 297 298 298 298 297 297 297 297 296 296 296 296 296 295 294 294 294 293 293
293 293 295 297 297 296 297 297 297 297 297 296 297 297 297 298 298 298 299 299 299 299 299 299 299 299 299 299 299 299 300 299 298 298 297 296 295 294
299 299 300 300 300 299 299 299 298 298 298 298 299 300 300 301 301 301 301 301 301 301 301 301 301 301 302 302 303 303 303 303 303 302 300 299 298 297
300 301 301 301 300 300 299 299 299 300 301 301 302 302 303 303 303 304 304 304 304 304 303 303 304 304 304 305 306 307 307 307 306 305 304 303 302 301
Height
5887 5888 5888 5888 5889 5889 5889 5889 5889 5889 5889 5889 5889 5889 5889 5889 5888 5888 5887 5887 5886 5886 5885 5884 5883 5882 5881 5880 5879 5878 5877 5876 5875 5874 5873 5872 5871 5870
5883 5884 5885 5885 5885 5885 5885 5885 5885 5885 5885 5885 5885 5885 5884 5884 5884 5883 5883 5882 5882 5881 5880 5879 5878 5877 5876 5875 5874 5873 5872 5870 5869 5868 5867 5866 5864 5863
5879 5880 5880 5880 5880 5880 5880 5880 5880 5880 5880 5880 5880 5880 5880 5879 5879 5878 5878 5877 5876 5875 5874 5874 5872 5871 5870 5869 5868 5867 5865 5864 5862 5861 5860 5858 5857 5856
5875 5875 5875 5875 5875 5875 5875 5875 5875 5875 5875 5875 5874 5874 5874 5873 5873 5872 5872 5871 5870 5869 5868 5867 5865 5864 5863 5862 5860 5859 5858 5856 5855 5853 5852 5850 5849 5848
5869 5870 5870 5870 5869 5869 5869 5869 5869 5869 5869 5868 5868 5867 5867 5867 5866 5865 5864 5864 5863 5862 5861 5860 5858 5857 5855 5854 5852 5850 5849 5847 5846 5844 5842 5841 5839 5838
5864 5864 5864 5864 5863 5863 5863 5863 5862 5862 5862 5861 5861 5860 5860 5859 5859 5858 5857 5856 5855 5854 5853 5852 5850 5848 5846 5844 5843 5841 5839 5837 5836 5834 5832 5830 5829 5827
5857 5857 5857 5857 5857 5857 5856 5856 5855 5854 5854 5853 5853 5852 5852 5851 5850 5849 5849 5847 5846 5845 5843 5842 5840 5838 5836 5835 5833 5831 5829 5827 5825 5823 5821 5819 5817 5815
5851 5851 5851 5851 5850 5850 5849 5848 5847 5846 5846 5845 5845 5844 5843 5842 5841 5840 5839 5838 5837 5835 5834 5832 5830 5828 5826 5824 5822 5820 5817 5815 5813 5811 5808 5806 5804 5802
5844 5844 5844 5844 5843 5842 5841 5840 5839 5838 5838 5837 5836 5835 5834 5833 5832 5831 5829 5827 5826 5824 5823 5821 5819 5817 5814 5812 5810 5807 5805 5803 5800 5798 5795 5793 5791 5789
5838 5837 5837 5836 5836 5835 5834 5832 5831 5830 5829 5828 5827 5826 5824 5823 5822 5820 5819 5817 5815 5813 5812 5810 5807 5804 5802 5799 5797 5794 5792 5789 5787 5784 5781 5779 5776 5774
5831 5830 5830 5829 5828 5827 5826 5824 5823 5822 5820 5819 5817 5816 5814 5813 5811 5810 5808 5806 5803 5801 5799 5797 5795 5792 5789 5786 5783 5781 5778 5775 5772 5769 5766 5763 5760 5757
5824 5823 5822 5821 5820 5819 5817 5815 5814 5812 5811 5809 5807 5806 5804 5802 5800 5798 5796 5794 5791 5789 5787 5784 5781 5779 5777 5773 5769 5766 5763 5760 5757 5754 5750 5747 5744 5740
5816 5815 5814 5813 5812 5810 5808 5807 5805 5803 5801 5799 5797 5796 5794 5791 5789 5786 5784 5782 5779 5776 5774 5771 5768 5765 5762 5759 5755 5751 5747 5744 5740 5737 5733 5730 5726 5723
5808 5807 5806 5804 5803 5801 5799 5797 5796 5793 5791 5789 5787 5785 5782 5780 5777 5774 5772 5769 5766 5763 5760 5757 5754 5750 5746 5743 5739 5735 5731 5727 5723 5719 5716 5711 5707 5704
5800 5798 5797 5796 5794 5792 5790 5788 5786 5784 5781 5779 5777 5774 5771 5768 5765 5762 5759 5756 5753 5749 5746 5742 5739 5735 5730 5726 5723 5718 5714 5710 5706 5702 5698 5693 5689 5685
5792 5790 5789 5787 5785 5783 5781 5779 5776 5774 5771 5769 5766 5762 5759 5756 5753 5750 5746 5743 5739 5736 5731 5727 5723 5718 5714 5709 5705 5701 5697 5693 5689 5684 5681 5676 5672 5668
5783 5782 5780 5778 5776 5774 5771 5769 5766 5763 5760 5757 5754 5750 5747 5744 5740 5736 5733 5729 5725 5721 5716 5712 5707 5703 5698 5693 5689 5685 5681 5677 5672 5668 5665 5661 5656 5652
5775 5773 5771 5769 5766 5764 5761 5759 5756 5752 5749 5745 5742 5738 5734 5731 5727 5723 5719 5715 5710 5706 5701 5697 5693 5688 5683 5678 5674 5670 5666 5662 5658 5654 5650 5646 5642 5638
5766 5763 5761 5759 5756 5753 5751 5747 5744 5741 5737 5733 5730 5726 5722 5718 5714 5710 5706 5701 5696 5692 5687 5682 5678 5674 5670 5666 5660 5655 5652 5648 5644 5640 5636 5632 5628 5624
5756 5754 5751 5749 5746 5743 5740 5736 5732 5729 5725 5721 5717 5714 5710 5706 5701 5697 5692 5688 5683 5678 5673 5669 5664 5660 5656 5652 5648 5643 5638 5634 5631 5627 5623 5619 5615 5611
5747 5745 5742 5739 5735 5732 5728 5725 5721 5717 5713 5709 5705 5701 5697 5693 5688 5684 5679 5675 5670 5665 5661 5656 5652 5647 5643 5639 5635 5631 5626 5622 5618 5614 5610 5607 5603 5599
5738 5735 5732 5729 5725 5721 5717 5714 5710 5706 5702 5698 5694 5690 5685 5681 5676 5672 5667 5663 5658 5653 5649 5645 5641 5636 5632 5628 5624 5620 5616 5611 5607 5603 5599 5595 5591 5588
5729 5726 5722 5718 5714 5710 5707 5703 5699 5695 5691 5687 5683 5679 5674 5670 5665 5661 5656 5651 5647 5643 5639 5635 5631 5627 5623 5619 5614 5610 5606 5602 5598 5593 5590 5585 5582 5578